Simultaneous Nadir Overpasses (SNOs) Predictions

Prediction of SNOs between GOES-17 and METOP-B Satellite Orbit:

Table of predicted SNOs for the next 14.0 days since TLE Epoch: 11/12/2022
Index Date Time (GOES-17) GOES-17 Lat,Lon METOP-B Lat,Lon Distance(km) Time Diff (sec)
1 11/12/2022 06:57:47 0.03,-137.33 -0.88,-141.44 467.92 80
2 11/13/2022 06:34:28 0.03,-137.33 0.23,-136.44 101.05 80
3 11/14/2022 18:53:19 -0.02,-137.33 0.81,-140.99 417.95 80
4 11/15/2022 18:35:20 -0.02,-137.33 -0.30,-136.00 150.84 80
5 11/17/2022 06:54:20 0.02,-137.31 -0.70,-140.60 374.55 80
6 11/18/2022 06:31:01 0.02,-137.30 0.42,-135.60 193.93 80
7 11/19/2022 18:49:52 -0.01,-137.29 0.62,-140.15 325.99 80
8 11/20/2022 18:31:53 -0.01,-137.28 -0.50,-135.16 242.20 80
9 11/22/2022 06:50:52 0.01,-137.25 -0.55,-139.75 284.20 80
10 11/23/2022 06:27:32 0.01,-137.24 0.58,-134.75 283.37 80
11 11/24/2022 18:46:24 -0.00,-137.21 0.45,-139.31 238.32 80
12 11/25/2022 18:28:23 0.00,-137.19 -0.61,-134.30 328.71 80
